Tracking 31027 objects as of 19-Jul-2025
HD Live streaming from Space Station
objects crossing your sky now

FENGYUN 1C DEB

Track FENGYUN 1C DEB now!
10-day predictions


NORAD ID: 36710
Int'l Code: 1999-025EAG
Perigee: 691.6 km
Apogee: 787.7 km
Inclination: 98.4 °
Period: 99.5 minutes
Semi major axis: 7110 km
RCS: 0.0087 m2 (small)
Launch date: May 10, 1999
Source: People's Republic of China (PRC)
Launch site: Taiyaun Space Center, China (TSC)

Note: This is SATELLITE DEBRIS
Your satellite tracking list
GEOTAIL
Track 1 satellite(s)




NASA's NSSDC Master Catalog

Two Line Element Set (TLE):
1 36710U 99025EAG 25199.41603547  .00002755  00000-0  73464-3 0  9994
2 36710  98.3939 257.5006 0067613 270.3766  88.9680 14.47899428628202
Source of the keplerian elements: AFSPC